This is the latest recevied weather packets stored in our database for station/object DB0OHL. If no packets are shown the sender has not sent any weather packets the latest 10 day(s).
| Time | Temp. | Humidity | Pressure | Rain* | Wind** | Luminosity | Snow |
|---|---|---|---|---|---|---|---|
| 1777545939 | 16.67° C | 37% | 1027.4 hPa | 0 mm | - | - | - |
| 1777545337 | 16.11° C | 37% | 1027.4 hPa | 0 mm | - | - | - |
| 1777544734 | 16.67° C | 37% | 1027.6 hPa | 0 mm | - | - | - |
| 1777544132 | 16.11° C | 37% | 1027.7 hPa | 0 mm | - | - | - |
| 1777543529 | 16.11° C | 37% | 1027.7 hPa | 0 mm | - | - | - |
| 1777542927 | 15° C | 39% | 1027.8 hPa | 0 mm | - | - | - |
| 1777542324 | 15° C | 37% | 1027.9 hPa | 0 mm | - | - | - |
| 1777541722 | 15.56° C | 38% | 1028 hPa | 0 mm | - | - | - |
| 1777541119 | 15° C | 40% | 1028.1 hPa | 0 mm | - | - | - |
| 1777540517 | 14.44° C | 39% | 1028.4 hPa | 0 mm | - | - | - |
| 1777539974 | 13.89° C | 41% | 1028.5 hPa | 0 mm | - | - | - |
| 1777539372 | 13.89° C | 44% | 1028.9 hPa | 0 mm | - | - | - |
| 1777538769 | 13.89° C | 45% | 1028.9 hPa | 0 mm | - | - | - |
| 1777538166 | 13.89° C | 46% | 1029.2 hPa | 0 mm | - | - | - |
| 1777537564 | 12.78° C | 46% | 1029.3 hPa | 0 mm | - | - | - |
| 1777536961 | 12.78° C | 47% | 1029.3 hPa | 0 mm | - | - | - |
| 1777536359 | 12.22° C | 47% | 1029.4 hPa | 0 mm | - | - | - |
| 1777535757 | 12.22° C | 46% | 1029.4 hPa | 0 mm | - | - | - |
| 1777535154 | 11.67° C | 46% | 1029.6 hPa | 0 mm | - | - | - |
| 1777534551 | 11.67° C | 47% | 1029.7 hPa | 0 mm | - | - | - |
| 1777533949 | 11.67° C | 49% | 1029.8 hPa | 0 mm | - | - | - |
| 1777533346 | 11.11° C | 48% | 1029.9 hPa | 0 mm | - | - | - |
| 1777532744 | 11.11° C | 50% | 1030 hPa | 0 mm | - | - | - |
| 1777532141 | 10.56° C | 51% | 1030.2 hPa | 0 mm | - | - | - |
| 1777531539 | 10° C | 52% | 1030.2 hPa | 0 mm | - | - | - |
* Rain latest hour (hover to see other rain measurements)
** Current wind speed in m/s (hover to see current wind gust speed)